TimePST,TemperatureF,Dew PointF,Humidity,Sea Level PressureIn,VisibilityMPH,Wind Direction,Wind SpeedMPH,Gust SpeedMPH,PrecipitationIn,Events,Conditions,WindDirDegrees,DateUTC
12:53 AM,-9.0,-13.0,83,30.57,10.0,South,8.1,-,N/A,,Clear,170,2013-01-03 08:53:00
1:53 AM,-9.0,-13.0,83,30.57,10.0,South,11.5,-,N/A,,Clear,180,2013-01-03 09:53:00
2:53 AM,-11.0,-15.0,83,30.57,10.0,South,11.5,-,N/A,,Clear,180,2013-01-03 10:53:00
3:53 AM,-9.4,-14.8,77,30.28,10.0,South,11.5,-,N/A,,Clear,170,2013-01-03 11:53:00
4:53 AM,-11.9,-16.1,82,30.61,10.0,South,8.1,-,N/A,,Clear,170,2013-01-03 12:53:00
5:53 AM,-9.9,-14.1,82,30.67,10.0,SSE,16.1,-,N/A,,Clear,160,2013-01-03 13:53:00
7:53 AM,-9.0,-14.1,79,30.69,10.0,South,9.2,-,N/A,,Clear,170,2013-01-03 15:53:00
9:53 AM,5.0,-2.0,73,30.66,10.0,South,10.4,-,N/A,,Clear,170,2013-01-03 17:53:00
10:53 AM,12.9,3.9,67,30.59,10.0,South,6.9,-,N/A,,Clear,180,2013-01-03 18:53:00
11:53 AM,19.9,7.0,57,30.53,10.0,South,5.8,-,N/A,,Clear,180,2013-01-03 19:53:00
12:53 PM,23.0,6.1,48,30.51,10.0,SSE,3.5,-,N/A,,Clear,150,2013-01-03 20:53:00
1:53 PM,27.0,3.9,37,30.50,10.0,Calm,Calm,-,N/A,,Clear,0,2013-01-03 21:53:00
2:53 PM,28.0,3.9,36,30.49,10.0,Calm,Calm,-,N/A,,Clear,0,2013-01-03 22:53:00
3:53 PM,25.0,7.0,46,30.51,10.0,Calm,Calm,-,N/A,,Clear,0,2013-01-03 23:53:00
4:53 PM,10.0,3.0,73,30.60,10.0,South,9.2,-,N/A,,Clear,170,2013-01-04 00:53:00
5:53 PM,3.0,-2.9,76,30.65,10.0,South,9.2,-,N/A,,Clear,180,2013-01-04 01:53:00
6:53 PM,3.0,-2.9,76,30.64,10.0,South,10.4,-,N/A,,Clear,170,2013-01-04 02:53:00
7:53 PM,-0.9,-7.1,75,30.67,10.0,South,6.9,-,N/A,,Clear,170,2013-01-04 03:53:00
8:53 PM,-2.9,-9.0,75,30.65,10.0,South,9.2,-,N/A,,Clear,180,2013-01-04 04:53:00
9:53 PM,-2.0,-9.0,72,30.62,10.0,South,10.4,-,N/A,,Clear,170,2013-01-04 05:53:00
10:53 PM,-4.0,-9.9,76,30.59,10.0,SSE,15.0,-,N/A,,Clear,160,2013-01-04 06:53:00
11:53 PM,-5.1,-11.0,76,30.55,10.0,South,11.5,-,N/A,,Clear,170,2013-01-04 07:53:00